• In Romania
  • List of Countries
  • For 7 days
  • Water Temperature
  • Satellite Maps
  • Weather Map
  • Weather Widgets
  • user-avatar
    Login

    Hourly Weather Canillo

    Today, 28 May, Sunday

    Time Temperature Precipitation Wind Pressure Humidity
    00:00 +9°C° 0 mm 2 mps 621 mmHg 86%
    01:00 +9°C° 0 mm 2 mps 621 mmHg 86%
    02:00 +8°C° 0 mm 2 mps 621 mmHg 85%
    03:00 +8°C° 0 mm 2 mps 620 mmHg 85%
    04:00 +9°C° 0 mm 2 mps 621 mmHg 81%
    05:00 +10°C° 0 mm 2 mps 621 mmHg 77%
    06:00 +12°C° 0 mm 2 mps 622 mmHg 73%
    07:00 +15°C° 0 mm 2 mps 623 mmHg 63%
    08:00 +17°C° 0 mm 2 mps 624 mmHg 53%
    09:00 +19°C° 0 mm 2 mps 625 mmHg 43%
    10:00 +20°C° 0 mm 3 mps 625 mmHg 41%
    11:00 +21°C° 0 mm 3 mps 625 mmHg 38%
    12:00 +22°C° 0 mm 3 mps 626 mmHg 35%
    13:00 +22°C° 0 mm 3 mps 625 mmHg 36%
    14:00 +22°C° 0 mm 4 mps 625 mmHg 37%
    15:00 +22°C° 0 mm 4 mps 625 mmHg 37%
    16:00 +20°C° 0 mm 3 mps 624 mmHg 43%
    17:00 +19°C° 0 mm 3 mps 623 mmHg 48%
    18:00 +17°C° 0 mm 3 mps 623 mmHg 54%
    19:00 +15°C° 0 mm 2 mps 622 mmHg 60%
    20:00 +13°C° 0 mm 2 mps 621 mmHg 66%
    21:00 +9°C° 0 mm 2 mps 620 mmHg 72%
    22:00 +9°C° 0 mm 2 mps 620 mmHg 70%
    23:00 +9°C° 0 mm 2 mps 620 mmHg 69%

    Tomorrow, 29 May, Monday

    Time Temperature Precipitation Wind Pressure Humidity
    00:00 +8°C° 0 mm 2 mps 620 mmHg 67%
    01:00 +8°C° 0 mm 2 mps 619 mmHg 63%
    02:00 +8°C° 0 mm 2 mps 619 mmHg 58%
    03:00 +8°C° 0 mm 2 mps 619 mmHg 54%
    04:00 +10°C° 0 mm 1 mps 619 mmHg 55%
    05:00 +11°C° 0 mm 1 mps 620 mmHg 56%
    06:00 +12°C° 0 mm 1 mps 620 mmHg 57%
    07:00 +13°C° 0 mm 1 mps 621 mmHg 51%
    08:00 +15°C° 0 mm 2 mps 622 mmHg 45%
    09:00 +17°C° 0 mm 2 mps 622 mmHg 39%
    10:00 +18°C° 0 mm 2 mps 623 mmHg 37%
    11:00 +18°C° 0 mm 2 mps 623 mmHg 36%
    12:00 +19°C° 0 mm 3 mps 623 mmHg 34%
    13:00 +19°C° 0.2 mm 3 mps 623 mmHg 35%
    14:00 +19°C° 0.2 mm 3 mps 623 mmHg 36%
    15:00 +19°C° 0.2 mm 3 mps 622 mmHg 37%
    16:00 +18°C° 0.2 mm 2 mps 622 mmHg 44%
    17:00 +16°C° 0.2 mm 2 mps 621 mmHg 51%
    18:00 +15°C° 0.2 mm 1 mps 621 mmHg 58%
    19:00 +13°C° 0.1 mm 1 mps 620 mmHg 66%
    20:00 +11°C° 0.1 mm 1 mps 620 mmHg 74%
    21:00 +8°C° 0.1 mm 0 mps 619 mmHg 82%
    22:00 +7°C° 0.1 mm 0 mps 619 mmHg 83%
    23:00 +7°C° 0.1 mm 0 mps 619 mmHg 84%

    Day after tomorrow, 30 May, Tuesday

    Time Temperature Precipitation Wind Pressure Humidity
    00:00 +7°C° 0.1 mm 0 mps 619 mmHg 85%
    01:00 +8°C° 0 mm 1 mps 619 mmHg 86%
    02:00 +8°C° 0 mm 1 mps 619 mmHg 87%
    03:00 +8°C° 0 mm 1 mps 618 mmHg 88%
    04:00 +9°C° 0 mm 1 mps 619 mmHg 86%
    05:00 +10°C° 0 mm 1 mps 620 mmHg 84%
    06:00 +11°C° 0 mm 1 mps 620 mmHg 81%
    07:00 +12°C° 0 mm 1 mps 621 mmHg 73%
    08:00 +14°C° 0 mm 1 mps 622 mmHg 64%
    09:00 +15°C° 0 mm 1 mps 623 mmHg 55%
    10:00 +15°C° 0.1 mm 2 mps 623 mmHg 54%
    11:00 +16°C° 0.1 mm 2 mps 623 mmHg 54%
    12:00 +16°C° 0.1 mm 2 mps 623 mmHg 54%
    13:00 +15°C° 0.3 mm 2 mps 623 mmHg 57%
    14:00 +15°C° 0.3 mm 2 mps 622 mmHg 61%
    15:00 +14°C° 0.3 mm 2 mps 622 mmHg 64%
    16:00 +13°C° 0.6 mm 2 mps 622 mmHg 68%
    17:00 +13°C° 0.6 mm 2 mps 621 mmHg 72%
    18:00 +12°C° 0.6 mm 1 mps 621 mmHg 76%
    19:00 +11°C° 0.4 mm 1 mps 621 mmHg 81%
    20:00 +10°C° 0.4 mm 1 mps 621 mmHg 85%
    21:00 +9°C° 0.4 mm 1 mps 621 mmHg 90%
    22:00 +8°C° 0.3 mm 1 mps 621 mmHg 91%
    23:00 +8°C° 0.3 mm 1 mps 621 mmHg 91%

    31 May, Wednesday

    Time Temperature Precipitation Wind Pressure Humidity
    00:00 +8°C° 0.3 mm 1 mps 620 mmHg 92%
    01:00 +7°C° 0.2 mm 1 mps 620 mmHg 92%
    02:00 +7°C° 0.2 mm 1 mps 620 mmHg 93%
    03:00 +7°C° 0.2 mm 1 mps 620 mmHg 93%
    04:00 +8°C° 0.2 mm 1 mps 620 mmHg 90%
    05:00 +9°C° 0.2 mm 1 mps 621 mmHg 88%
    06:00 +10°C° 0.2 mm 1 mps 621 mmHg 85%
    07:00 +11°C° 0.2 mm 1 mps 622 mmHg 80%
    08:00 +12°C° 0.2 mm 1 mps 623 mmHg 75%
    09:00 +13°C° 0.2 mm 1 mps 623 mmHg 70%
    10:00 +14°C° 0.6 mm 1 mps 623 mmHg 70%
    11:00 +14°C° 0.6 mm 1 mps 623 mmHg 70%
    12:00 +15°C° 0.6 mm 1 mps 623 mmHg 69%
    13:00 +15°C° 1.4 mm 1 mps 623 mmHg 71%
    14:00 +14°C° 1.4 mm 1 mps 622 mmHg 74%
    15:00 +14°C° 1.4 mm 1 mps 622 mmHg 76%
    16:00 +14°C° 1.5 mm 1 mps 622 mmHg 79%
    17:00 +13°C° 1.5 mm 1 mps 622 mmHg 83%
    18:00 +12°C° 1.5 mm 1 mps 621 mmHg 86%
    19:00 +11°C° 0.4 mm 1 mps 621 mmHg 89%
    20:00 +10°C° 0.4 mm 1 mps 621 mmHg 92%
    21:00 +9°C° 0.4 mm 1 mps 621 mmHg 95%
    22:00 +8°C° 0 mm 1 mps 620 mmHg 94%
    23:00 +8°C° 0 mm 1 mps 620 mmHg 94%

    1 June, Thursday

    Time Temperature Precipitation Wind Pressure Humidity
    00:00 +7°C° 0 mm 1 mps 620 mmHg 94%
    01:00 +7°C° 0 mm 1 mps 619 mmHg 93%
    02:00 +6°C° 0 mm 1 mps 619 mmHg 93%
    03:00 +5°C° 0 mm 1 mps 619 mmHg 92%
    04:00 +7°C° 0 mm 1 mps 619 mmHg 89%
    05:00 +9°C° 0 mm 1 mps 620 mmHg 85%
    06:00 +10°C° 0 mm 1 mps 621 mmHg 82%
    07:00 +12°C° 0 mm 1 mps 622 mmHg 74%
    08:00 +14°C° 0 mm 1 mps 623 mmHg 67%
    09:00 +16°C° 0 mm 1 mps 624 mmHg 59%
    10:00 +16°C° 0.2 mm 1 mps 624 mmHg 59%
    11:00 +18°C° 0.2 mm 1 mps 624 mmHg 60%
    12:00 +18°C° 0.2 mm 1 mps 623 mmHg 60%
    13:00 +18°C° 0.8 mm 1 mps 623 mmHg 63%
    14:00 +16°C° 0.8 mm 1 mps 623 mmHg 67%
    15:00 +16°C° 0.8 mm 1 mps 623 mmHg 70%
    16:00 +16°C° 0.7 mm 1 mps 622 mmHg 73%
    17:00 +15°C° 0.7 mm 1 mps 622 mmHg 76%
    18:00 +15°C° 0.7 mm 1 mps 622 mmHg 79%
    19:00 +12°C° 0.1 mm 0 mps 622 mmHg 84%
    20:00 +9°C° 0.1 mm 0 mps 621 mmHg 88%
    21:00 +7°C° 0.1 mm 0 mps 620 mmHg 93%
    22:00 +7°C° 0 mm 0 mps 620 mmHg 93%
    23:00 +7°C° 0 mm 0 mps 620 mmHg 93%

    2 June, Friday

    Time Temperature Precipitation Wind Pressure Humidity
    00:00 +6°C° 0 mm 0 mps 620 mmHg 93%
    01:00 +6°C° 0 mm 0 mps 619 mmHg 93%
    02:00 +5°C° 0 mm 0 mps 619 mmHg 93%
    03:00 +5°C° 0 mm 0 mps 619 mmHg 93%
    04:00 +7°C° 0 mm 0 mps 620 mmHg 89%
    05:00 +9°C° 0 mm 0 mps 621 mmHg 86%
    06:00 +12°C° 0 mm 0 mps 622 mmHg 82%
    07:00 +13°C° 0 mm 0 mps 623 mmHg 74%
    08:00 +16°C° 0 mm 1 mps 624 mmHg 66%
    09:00 +19°C° 0 mm 1 mps 625 mmHg 58%
    10:00 +19°C° 0.1 mm 1 mps 625 mmHg 57%
    11:00 +20°C° 0.1 mm 1 mps 625 mmHg 56%
    12:00 +19°C° 0.1 mm 2 mps 625 mmHg 54%
    13:00 +20°C° 0.3 mm 1 mps 624 mmHg 57%
    14:00 +19°C° 0.3 mm 1 mps 624 mmHg 60%
    15:00 +19°C° 0.3 mm 1 mps 624 mmHg 63%
    16:00 +18°C° 0.4 mm 1 mps 623 mmHg 66%
    17:00 +18°C° 0.4 mm 1 mps 623 mmHg 70%
    18:00 +16°C° 0.4 mm 1 mps 623 mmHg 73%
    19:00 +14°C° 0.5 mm 1 mps 622 mmHg 79%
    20:00 +12°C° 0.5 mm 1 mps 622 mmHg 84%
    21:00 +9°C° 0.5 mm 0 mps 621 mmHg 89%
    22:00 +9°C° 0.3 mm 0 mps 621 mmHg 90%
    23:00 +8°C° 0.3 mm 0 mps 621 mmHg 90%
    Show more